CST,Max TemperatureF,Mean TemperatureF,Min TemperatureF,Max Dew PointF,MeanDew PointF,Min DewpointF,Max Humidity, Mean Humidity, Min Humidity, Max Sea Level PressureIn, Mean Sea Level PressureIn, Min Sea Level PressureIn, Max VisibilityMiles, Mean VisibilityMiles, Min VisibilityMiles, Max Wind SpeedMPH, Mean Wind SpeedMPH, Max Gust SpeedMPH,PrecipitationIn, CloudCover, Events, WindDirDegrees
2013-1-1,68,57,46,69,56,43,100,93,82,30.19,30.04,29.89,10,8,1,17,8,25,0.11,5,Rain,346
2013-1-2,47,44,41,44,42,39,100,92,81,30.29,30.24,30.16,10,8,5,17,9,23,0.08,7,Rain,349
2013-1-3,53,48,42,39,36,32,85,65,46,30.40,30.34,30.28,10,10,10,16,9,21,0.00,8,,7
2013-1-4,52,48,43,39,37,34,77,63,48,30.47,30.39,30.34,10,10,10,16,8,22,0.00,8,,22
2013-1-5,49,46,42,49,46,39,100,97,68,30.37,30.30,30.24,10,8,3,12,7,17,0.18,8,Rain,5
2013-1-6,61,52,42,48,44,40,100,84,48,30.35,30.29,30.25,10,9,1,16,8,22,0.00,3,,354
2013-1-7,64,50,36,51,46,36,100,85,59,30.30,30.20,30.05,10,9,4,13,6,,0.00,3,,46
2013-1-8,70,62,54,70,63,51,100,100,90,30.06,29.94,29.87,10,7,2,18,9,24,0.18,7,Rain,82
2013-1-9,68,64,61,69,66,62,100,100,100,30.07,29.92,29.83,10,8,2,24,14,33,0.64,7,Rain,125
2013-1-10,72,61,49,61,53,44,100,81,37,30.12,30.04,29.99,10,8,1,12,4,,0.04,2,Rain,215
2013-1-11,72,58,44,72,59,45,100,94,70,30.06,29.96,29.87,10,8,0,13,4,18,0.00,4,Fog,124
2013-1-12,76,74,71,76,73,71,100,100,100,29.89,29.80,29.68,7,5,0,23,13,33,0.00,8,Fog,152
2013-1-13,71,57,43,72,47,37,100,84,62,30.10,29.98,29.78,10,9,2,22,12,33,0.12,8,Rain,351
2013-1-14,49,44,40,43,41,37,100,83,68,30.20,30.12,30.05,10,10,4,17,11,24,0.00,8,,12
2013-1-15,46,42,38,44,40,36,100,95,84,30.15,30.09,30.03,10,8,3,17,9,25,0.01,8,Rain,349
2013-1-16,53,42,32,37,29,21,93,63,30,30.32,30.25,30.15,10,10,10,18,12,25,0.00,2,,319
2013-1-17,65,48,30,38,32,26,100,59,26,30.47,30.39,30.29,10,10,10,13,3,17,0.00,0,,331
2013-1-18,66,50,35,46,39,35,100,76,34,30.52,30.44,30.37,10,10,7,12,4,12,0.00,0,,82
2013-1-19,71,54,38,54,46,38,100,80,38,30.37,30.27,30.20,10,9,0,10,5,16,0.00,1,Fog,122
2013-1-20,72,56,41,63,50,41,100,85,44,30.27,30.20,30.13,10,6,0,10,3,,0.00,3,Fog,101
2013-1-21,74,59,44,63,50,45,100,81,40,30.24,30.18,30.14,10,7,0,9,3,,0.00,0,Fog,95
2013-1-22,75,58,42,56,50,43,100,82,41,30.32,30.26,30.20,10,7,0,10,3,16,0.00,1,Fog,85
2013-1-23,76,62,48,66,57,49,100,87,54,30.35,30.28,30.25,10,6,0,12,6,16,0.00,4,Fog,123
2013-1-24,80,68,55,69,61,55,100,88,50,30.30,30.23,30.18,10,5,0,16,6,23,0.00,3,Fog,173
2013-1-25,79,67,55,69,62,55,100,90,56,30.20,30.14,30.09,10,6,0,20,5,25,0.00,5,Fog,170
2013-1-26,79,68,57,69,62,57,100,87,51,30.19,30.14,30.11,10,7,0,15,4,20,0.00,3,Fog,129
2013-1-27,78,69,60,74,67,61,100,94,68,30.14,30.09,30.03,10,9,4,21,9,30,0.00,6,,133
2013-1-28,79,74,69,73,70,67,100,92,67,30.11,30.04,29.96,10,8,5,23,12,30,0.00,7,,148
2013-1-29,77,68,60,75,72,60,100,97,80,29.95,29.78,29.63,10,6,4,28,17,37,0.11,8,Rain,164
2013-1-30,63,51,37,56,33,24,85,43,23,30.27,30.02,29.77,10,10,2,25,11,38,0.00,3,,321
2013-1-31,68,50,33,44,34,24,100,61,19,30.33,30.28,30.22,10,10,3,14,3,20,0.00,0,,177